WXM80 ListenWXM80 Stop

You find our weather info also at:

UK Metoffice

WeatherCloud

Weather Underground

Northeastern Weather Network

AWEKAS

Citizen Weather Observer Program (CWOP)

HAMweather, WeatherForYou, PWS Weather


Weather Underground History page Text

Daily Summary for January 16, 2018 Units:  Metric    English   Both
« Previous Day
Next Day »
Daily Weekly Monthly Yearly Custom
  High: Low: Average:
Temperature: -17.8 °C -3.9 °C -1.4 °C
Dew Point: -17.8 °C -6.6 °C -3.4 °C
Humidity: Humidity % 80 % 86 %
Wind Speed: 0 km/h 0 km/h 2.4 km/h
Wind Gust: 0 km/h - -
Wind:- - ENE
Pressure: 0 hPa 1018.5 hPa -
Precipitation: 0 mm    
Historical Graphs
 
 
Tabular Data for January 16, 2018
Time Temperature Dew Point Pressure Wind Wind Speed Wind Gust Humidity Rainfall Rate (Hourly)
-17.8 °C -17.8 °C 0 hPa Calm     Humidity % 0 mm
00:02 -3.1 °C -5.1 °C 1024.3 hPa ENE 4.3 km/h 5.6 km/h 86 % 0 mm
00:10 -3.1 °C -4.9 °C 1023.9 hPa ENE 6.8 km/h 11.1 km/h 87 % 0 mm
00:17 -3 °C -4.8 °C 1024.3 hPa East 2.3 km/h 3.7 km/h 87 % 0 mm
00:25 -3 °C -4.8 °C 1024.3 hPa ENE 4.8 km/h 5.6 km/h 87 % 0 mm
00:40 -2.9 °C -4.7 °C 1023.9 hPa ENE 2.9 km/h 5.6 km/h 88 % 0 mm
00:48 -2.9 °C -4.7 °C 1023.9 hPa ENE 3.1 km/h 5.6 km/h 88 % 0 mm
01:14 -2.9 °C -4.6 °C 1023.9 hPa East 1.9 km/h 3.7 km/h 88 % 0 mm
01:24 -2.9 °C -4.7 °C 1023.9 hPa Calm     88 % 0 mm
01:40 -2.9 °C -4.8 °C 1024.3 hPa Calm     87 % 0 mm
01:52 -3.1 °C -5.1 °C 1024.3 hPa Calm     86 % 0 mm
01:59 -3.1 °C -5.1 °C 1024.3 hPa ENE 0.2 km/h 1.9 km/h 86 % 0 mm
02:16 -3.2 °C -5.7 °C 1024.3 hPa ENE 3.2 km/h 5.6 km/h 83 % 0 mm
02:21 -3.3 °C -5.8 °C 1024.3 hPa ENE 3.1 km/h 5.6 km/h 83 % 0 mm
02:27 -3.3 °C -5.9 °C 1024.3 hPa NE 1.9 km/h 5.6 km/h 82 % 0 mm
02:47 -3.3 °C -5.9 °C 1024.3 hPa NE 1.6 km/h 3.7 km/h 82 % 0 mm
02:56 -3.3 °C -5.9 °C 1024.6 hPa NNE 4.7 km/h 9.7 km/h 82 % 0 mm
03:06 -3.3 °C -6.1 °C 1024.9 hPa NNE 2.7 km/h 5.6 km/h 81 % 0 mm
03:12 -3.4 °C -6.2 °C 1024.9 hPa North 7.1 km/h 9.3 km/h 81 % 0 mm
03:21 -3.4 °C -6.2 °C 1024.9 hPa NNE 8 km/h 11.3 km/h 81 % 0 mm
03:29 -3.6 °C -6.5 °C 1024.9 hPa North 4.5 km/h 5.6 km/h 80 % 0 mm
03:45 -3.7 °C -6.6 °C 1024.6 hPa ENE 4 km/h 7.4 km/h 80 % 0 mm
03:59 -3.8 °C -6.6 °C 1024.6 hPa ENE 0.6 km/h 3.7 km/h 81 % 0 mm
04:13 -3.9 °C -6.5 °C 1024.6 hPa NE 1.9 km/h 5.6 km/h 82 % 0 mm
04:19 -3.9 °C -6.5 °C 1024.6 hPa NE 1.4 km/h 3.7 km/h 82 % 0 mm
04:25 -3.8 °C -6.4 °C 1024.6 hPa NE 2.4 km/h 3.7 km/h 82 % 0 mm
04:41 -3.8 °C -6.3 °C 1024.6 hPa NE 1.6 km/h 3.2 km/h 83 % 0 mm
04:49 -3.8 °C -6.2 °C 1024.6 hPa NE 3.1 km/h 5.6 km/h 83 % 0 mm
04:55 -3.7 °C -6.2 °C 1024.9 hPa NE 1.9 km/h 3.7 km/h 83 % 0 mm
05:09 -3.7 °C -6.1 °C 1024.6 hPa ENE 2.9 km/h 5.6 km/h 83 % 0 mm
05:22 -3.6 °C -5.9 °C 1024.9 hPa Calm   3.7 km/h 84 % 0 mm
05:35 -3.6 °C -5.9 °C 1024.6 hPa Calm     84 % 0 mm
05:41 -3.6 °C -5.9 °C 1024.6 hPa Calm     84 % 0 mm
05:50 -3.6 °C -5.9 °C 1024.6 hPa Calm     84 % 0 mm
05:58 -3.6 °C -5.9 °C 1024.6 hPa Calm     84 % 0 mm
06:05 -3.6 °C -5.9 °C 1024.9 hPa Calm     84 % 0 mm
06:20 -3.5 °C -5.8 °C 1024.9 hPa Calm     84 % 0 mm
06:28 -3.5 °C -5.8 °C 1024.9 hPa Calm     84 % 0 mm
06:34 -3.4 °C -5.8 °C 1024.9 hPa Calm     84 % 0 mm
06:42 -3.4 °C -5.8 °C 1024.9 hPa ENE 0.6 km/h 3.7 km/h 84 % 0 mm
06:47 -3.4 °C -5.8 °C 1024.9 hPa Calm     84 % 0 mm
06:52 -3.4 °C -5.8 °C 1024.9 hPa Calm     84 % 0 mm
06:59 -3.3 °C -5.7 °C 1025.3 hPa ENE 0.5 km/h 1.9 km/h 84 % 0 mm
07:05 -3.3 °C -5.7 °C 1025.3 hPa ENE 0.5 km/h 3.7 km/h 84 % 0 mm
07:14 -3.3 °C -5.7 °C 1025.3 hPa Calm     84 % 0 mm
07:26 -3.2 °C -5.6 °C 1025.6 hPa Calm     84 % 0 mm
07:35 -3.2 °C -5.5 °C 1025.6 hPa WNW 0.3 km/h 3.7 km/h 84 % 0 mm
07:41 -3.1 °C -5.4 °C 1025.3 hPa WNW 1.9 km/h 3.7 km/h 84 % 0 mm
07:51 -3.1 °C -5.4 °C 1025.6 hPa Calm     84 % 0 mm
07:59 -3.1 °C -5.6 °C 1025.6 hPa WNW 1 km/h 3.2 km/h 83 % 0 mm
08:05 -3.1 °C -5.6 °C 1026 hPa Calm     83 % 0 mm
08:18 -3 °C -5.7 °C 1025.6 hPa WNW 1.1 km/h 3.7 km/h 82 % 0 mm
08:27 -3 °C -5.5 °C 1025.6 hPa NNE 2.9 km/h 5.6 km/h 83 % 0 mm
08:40 -2.8 °C -5.3 °C 1025.6 hPa ENE 1.1 km/h 3.7 km/h 83 % 0 mm
08:54 -2.7 °C -5.2 °C 1025.6 hPa East 3.5 km/h 5.6 km/h 83 % 0 mm
09:05 -2.5 °C -4.8 °C 1025.3 hPa East 3.5 km/h 5.6 km/h 84 % 0 mm
09:20 -2.3 °C -4.6 °C 1025.3 hPa East 6.3 km/h 9.3 km/h 84 % 0 mm
09:30 -2.2 °C -4.3 °C 1024.9 hPa East 3.2 km/h 9.3 km/h 85 % 0 mm
09:36 -2.1 °C -4.2 °C 1024.9 hPa East 3.7 km/h 8 km/h 85 % 0 mm
09:42 -1.9 °C -4.1 °C 1024.9 hPa East 1.1 km/h 5.6 km/h 85 % 0 mm
09:51 -1.8 °C -4 °C 1024.9 hPa East 3.2 km/h 5.6 km/h 85 % 0 mm
10:00 -1.6 °C -3.8 °C 1024.9 hPa East 2.7 km/h 5.6 km/h 85 % 0 mm
10:06 -1.4 °C -3.7 °C 1024.9 hPa East 1.6 km/h 8 km/h 85 % 0 mm
10:11 -1.3 °C -3.6 °C 1024.6 hPa East 3.2 km/h 5.6 km/h 84 % 0 mm
10:16 -1.2 °C -3.5 °C 1024.6 hPa East 2.4 km/h 5.6 km/h 84 % 0 mm
10:31 -0.7 °C -3.3 °C 1024.6 hPa ENE 3.9 km/h 5.6 km/h 83 % 0 mm
10:40 -0.6 °C -3.3 °C 1024.6 hPa ENE 6.6 km/h 7.4 km/h 82 % 0 mm
10:45 -0.6 °C -3.3 °C 1024.6 hPa ENE 4.2 km/h 6.4 km/h 82 % 0 mm
10:52 -0.5 °C -3.2 °C 1024.3 hPa ENE 4.8 km/h 6.4 km/h 82 % 0 mm
10:58 -0.4 °C -3.2 °C 1024.3 hPa ENE 6.3 km/h 8 km/h 82 % 0 mm
11:05 -0.3 °C -3.1 °C 1024.3 hPa NE 5 km/h 11.1 km/h 82 % 0 mm
11:11 -0.3 °C -3.1 °C 1024.3 hPa ENE 5.6 km/h 7.4 km/h 82 % 0 mm
11:16 -0.3 °C -3.1 °C 1024.3 hPa NE 6.4 km/h 11.1 km/h 82 % 0 mm
11:25 -0.3 °C -3 °C 1024.3 hPa ENE 5 km/h 11.3 km/h 82 % 0 mm
11:34 -0.3 °C -2.9 °C 1024.3 hPa NE 5 km/h 11.1 km/h 83 % 0 mm
11:49 -0.3 °C -2.7 °C 1023.6 hPa ENE 6.4 km/h 13 km/h 84 % 0 mm
12:00 -0.2 °C -2.6 °C 1023.6 hPa ENE 9.7 km/h 13 km/h 84 % 0 mm
12:06 -0.2 °C -2.6 °C 1023.2 hPa ENE 6.4 km/h 11.1 km/h 84 % 0 mm
12:13 -0.2 °C -2.6 °C 1023.2 hPa ENE 7.1 km/h 11.1 km/h 84 % 0 mm
12:24 -0.1 °C -2.3 °C 1023.2 hPa ENE 4.8 km/h 11.1 km/h 85 % 0 mm
12:26 -0.1 °C -2.3 °C 1022.9 hPa ENE 3.5 km/h 7.4 km/h 85 % 0 mm
12:39 0.1 °C -2 °C 1022.9 hPa ENE 3.9 km/h 5.6 km/h 86 % 0 mm
12:45 0.1 °C -2.1 °C 1022.9 hPa ENE 5.6 km/h 11.1 km/h 85 % 0 mm
12:52 0.2 °C -1.9 °C 1022.6 hPa ENE 6.1 km/h 7.4 km/h 86 % 0 mm
13:06 0.3 °C -1.8 °C 1022.6 hPa ENE 8 km/h 12.9 km/h 86 % 0 mm
13:11 0.4 °C -1.6 °C 1022.6 hPa East 8 km/h 13 km/h 86 % 0 mm
13:21 0.6 °C -1.6 °C 1022.6 hPa ENE 7.4 km/h 11.1 km/h 85 % 0 mm
13:26 0.7 °C -1.6 °C 1022.6 hPa NE 7.1 km/h 11.1 km/h 85 % 0 mm
13:38 0.7 °C -1.6 °C 1022.6 hPa NE 2.4 km/h 7.4 km/h 85 % 0 mm
13:47 0.7 °C -1.6 °C 1022.2 hPa NE 2.6 km/h 5.6 km/h 85 % 0 mm
13:55 0.7 °C -1.6 °C 1022.2 hPa ENE 2.9 km/h 5.6 km/h 85 % 0 mm
14:01 0.7 °C -1.6 °C 1022.2 hPa NE 3.1 km/h 5.6 km/h 85 % 0 mm
14:08 0.8 °C -1.4 °C 1022.2 hPa ENE 4.7 km/h 7.4 km/h 85 % 0 mm
14:13 0.7 °C -1.5 °C 1022.2 hPa ENE 3.5 km/h 5.6 km/h 85 % 0 mm
14:19 0.8 °C -1.4 °C 1022.2 hPa NNE 4 km/h 7.4 km/h 85 % 0 mm
14:24 0.8 °C -1.2 °C 1022.2 hPa NE 2.6 km/h 5.6 km/h 86 % 0 mm
14:31 0.9 °C -1.3 °C 1022.2 hPa NE 3.1 km/h 6.4 km/h 85 % 0 mm
14:40 0.8 °C -1.4 °C 1022.2 hPa ENE 3.2 km/h 6.4 km/h 85 % 0 mm
14:45 0.7 °C -1.5 °C 1022.2 hPa NE 6.3 km/h 11.1 km/h 85 % 0 mm
14:51 0.7 °C -1.4 °C 1022.2 hPa NE 2.1 km/h 4.8 km/h 86 % 0 mm
15:03 0.6 °C -1.4 °C 1022.2 hPa ENE 6.6 km/h 7.4 km/h 86 % 0 mm
15:13 0.6 °C -1.5 °C 1022.2 hPa ENE 4.3 km/h 7.4 km/h 86 % 0 mm
15:22 0.5 °C -1.4 °C 1022.2 hPa ENE 5 km/h 11.1 km/h 87 % 0 mm
16:02 0.4 °C -1.4 °C 1022.2 hPa ENE 1.9 km/h 5.6 km/h 88 % 0 mm
16:14 0.3 °C -1.4 °C 1022.2 hPa ENE 3.2 km/h 5.6 km/h 88 % 0 mm
16:34 0.3 °C -1.3 °C 1022.2 hPa ENE 2.7 km/h 5.6 km/h 89 % 0 mm
16:41 0.2 °C -1.4 °C 1022.2 hPa ENE 0.8 km/h 3.2 km/h 89 % 0 mm
17:09 0 °C -1.6 °C 1021.9 hPa ENE 1.3 km/h 3.7 km/h 89 % 0 mm
17:14 -0.1 °C -1.7 °C 1021.9 hPa ENE 1.1 km/h 3.7 km/h 89 % 0 mm
17:29 -0.2 °C -1.7 °C 1021.6 hPa Calm     90 % 0 mm
18:11 -0.1 °C -1.2 °C 1021.6 hPa NE 2.7 km/h 3.7 km/h 92 % 0 mm
18:16 0 °C -1.2 °C 1021.6 hPa ENE 1.6 km/h 4.8 km/h 92 % 0 mm
18:31 0.1 °C -0.9 °C 1021.9 hPa ENE 1.4 km/h 3.7 km/h 93 % 0 mm
18:41 0.2 °C -0.8 °C 1021.9 hPa ENE 0.6 km/h 5.6 km/h 93 % 0 mm
18:47 0.2 °C -0.8 °C 1021.9 hPa ENE 0.2 km/h 1.9 km/h 93 % 0 mm
19:02 0.3 °C -0.7 °C 1021.6 hPa ENE 2.7 km/h 3.7 km/h 93 % 0 mm
19:08 0.3 °C -0.7 °C 1021.6 hPa ENE 1.6 km/h 3.7 km/h 93 % 0 mm
19:20 0.3 °C -0.7 °C 1021.6 hPa ENE 0.3 km/h 3.7 km/h 93 % 0 mm
19:26 0.3 °C -0.7 °C 1021.6 hPa Calm     93 % 0 mm
19:31 0.3 °C -0.7 °C 1021.6 hPa Calm     93 % 0 mm
19:40 0.3 °C -0.7 °C 1021.6 hPa Calm     93 % 0 mm
19:47 0.3 °C -0.7 °C 1021.6 hPa Calm     93 % 0 mm
19:52 0.2 °C -0.8 °C 1021.2 hPa Calm     93 % 0 mm
19:58 0.2 °C -1 °C 1021.2 hPa Calm     92 % 0 mm
20:04 0.1 °C -0.9 °C 1021.2 hPa Calm     93 % 0 mm
20:12 0 °C -1.2 °C 1021.2 hPa Calm     92 % 0 mm
20:21 -0.1 °C -1.2 °C 1021.2 hPa Calm     92 % 0 mm
20:28 -0.1 °C -1.2 °C 1021.2 hPa Calm     92 % 0 mm
20:33 -0.1 °C -1.3 °C 1021.2 hPa Calm     92 % 0 mm
20:50 -0.2 °C -1.3 °C 1021.2 hPa Calm     92 % 0 mm
21:29 -0.1 °C -1.1 °C 1020.5 hPa Calm     93 % 0 mm
21:39 -0.1 °C -1.1 °C 1020.5 hPa Calm     93 % 0 mm
21:44 -0.1 °C -1.1 °C 1020.5 hPa Calm     93 % 0 mm
21:49 -0.1 °C -0.9 °C 1020.5 hPa Calm     94 % 0 mm
21:57 -0.1 °C -0.9 °C 1020.5 hPa Calm     94 % 0 mm
22:09 -0.1 °C -0.9 °C 1020.5 hPa Calm     94 % 0 mm
22:38 -0.2 °C -1.2 °C 1019.9 hPa Calm     93 % 0 mm
22:43 -0.2 °C -1.2 °C 1019.9 hPa Calm     93 % 0 mm
22:53 -0.2 °C -1.2 °C 1019.5 hPa Calm     93 % 0 mm
23:01 -0.3 °C -1.3 °C 1019.9 hPa Calm     93 % 0 mm
23:11 -0.3 °C -1.3 °C 1019.5 hPa Calm     93 % 0 mm
23:17 -0.3 °C -1.1 °C 1019.5 hPa Calm     94 % 0 mm
23:28 -0.2 °C -1.1 °C 1019.2 hPa Calm     94 % 0 mm
23:43 -0.2 °C -1.1 °C 1018.8 hPa Calm     94 % 0 mm
23:58 -0.2 °C -1 °C 1018.5 hPa Calm     94 % 0 mm
Crab Meadow Weather
Compliments of Weather Underground - 2.25 mb

Script developed by  Jim McMurry - jmcmurry@mwt.net Adapted for the template by  Wim van der Kuil - Leuven-Template.eu

Extremes: The most widespread U.S. cold wave was in February of 1899. It was so cold that the Mississippi River froze over its entire length, with ice as thick as two inches even in New Orleans.